Location: Bay Ridge
(40.6340°N, 74.0146°W)
Time: 18:10:00
(UTC+00:00)

Cosmos 1328 Rocket - Pass Details

Date: 15 November 2019
Orbit: 600 x 628 km, 82.5° (Epoch: 08 December)

Event Time Altitude Azimuth Distance (km) Brightness Sun altitude
Rises 10:22:27 0° 355° (N) 2,876 6.8 -15.3°
Reaches altitude 10° 10:24:42 10° 358° (N) 1,963 6.0 -14.8°
Maximum altitude 10:29:01 67° 81° (E) 655 3.9 -14.0°
Drops below altitude 10° 10:33:17 10° 165° (SSE) 1,938 6.5 -13.3°
Sets 10:35:29 0° 167° (SSE) 2,834 7.3 -12.8°
